This is the latest recevied weather packets stored in our database for station/object W3AJR. If no packets are shown the sender has not sent any weather packets the latest 10 day(s).
| Time | Temp. | Humidity | Pressure | Rain* | Wind** | Luminosity | Snow |
|---|---|---|---|---|---|---|---|
| 1777989982 | 21.67° C | 52% | 1012.1 hPa | 0 mm | - | 60 W/m² | - |
| 1777989680 | 21.11° C | 54% | 1012.1 hPa | 0 mm | - | 60 W/m² | - |
| 1777989375 | 21.11° C | 55% | 1012 hPa | 0 mm | - | 58 W/m² | - |
| 1777989073 | 20.56° C | 56% | 1012.2 hPa | 0 mm | - | 57 W/m² | - |
| 1777988768 | 20.56° C | 56% | 1012.1 hPa | 0 mm | - | 56 W/m² | - |
| 1777988466 | 20.56° C | 56% | 1012.3 hPa | 0 mm | - | 55 W/m² | - |
| 1777988163 | 20° C | 56% | 1012.1 hPa | 0 mm | - | 55 W/m² | - |
| 1777987858 | 20° C | 59% | 1012.2 hPa | 0 mm | - | 54 W/m² | - |
| 1777987555 | 19.44° C | 57% | 1012.3 hPa | 0 mm | - | 54 W/m² | - |
| 1777987253 | 18.89° C | 57% | 1012.4 hPa | 0 mm | - | 53 W/m² | - |
| 1777986949 | 18.89° C | 58% | 1012.3 hPa | 0 mm | - | 52 W/m² | - |
| 1777986647 | 18.33° C | 58% | 1012.1 hPa | 0 mm | - | 52 W/m² | - |
| 1777986345 | 18.33° C | 58% | 1012.2 hPa | 0 mm | - | 50 W/m² | - |
| 1777986043 | 17.78° C | 61% | 1012.2 hPa | 0 mm | - | 50 W/m² | - |
| 1777985739 | 17.78° C | 60% | 1012.2 hPa | 0 mm | - | 49 W/m² | - |
| 1777985436 | 17.22° C | 61% | 1012.3 hPa | 0 mm | - | 50 W/m² | - |
| 1777985133 | 17.22° C | 62% | 1012.1 hPa | 0 mm | - | 53 W/m² | - |
| 1777984829 | 16.67° C | 63% | 1012.4 hPa | 0 mm | - | 100 W/m² | - |
| 1777984526 | 16.67° C | 62% | 1012.4 hPa | 0 mm | - | 49 W/m² | - |
| 1777984222 | 16.67° C | 63% | 1012.6 hPa | 0 mm | - | 56 W/m² | - |
| 1777983919 | 16.11° C | 65% | 1012.7 hPa | 0 mm | - | 46 W/m² | - |
| 1777983616 | 16.11° C | 65% | 1012.9 hPa | 0 mm | - | 45 W/m² | - |
| 1777983312 | 15.56° C | 66% | 1012.6 hPa | 0 mm | - | 43 W/m² | - |
| 1777983009 | 15.56° C | 66% | 1012.6 hPa | 0 mm | - | 42 W/m² | - |
| 1777982705 | 15° C | 67% | 1012.6 hPa | 0 mm | - | 39 W/m² | - |
* Rain latest hour (hover to see other rain measurements)
** Current wind speed in m/s (hover to see current wind gust speed)